Tracking 18852 objects as of 24-Nov-2017
HD Live streaming from Space Station
objects crossing your sky now

COSMOS 304

Track COSMOS 304 now!
10-day predictions
COSMOS 304 is classified as:


NORAD ID: 4138
Int'l Code: 1969-091A
Perigee: 736.7 km
Apogee: 755.1 km
Inclination: 74.0 °
Period: 99.6 minutes
Semi major axis: 7116 km
RCS: 1.933 m2 (large)
Launch date: October 21, 1969
Source: Commonwealth of Independent States (former USSR) (CIS)
Launch site: PLESETSK MISSILE AND SPACE COMPLEX (PKMTR)
aabbcc
Your satellite tracking list
Your tracking list is empty




NASA's NSSDC Master Catalog

Two Line Element Set (TLE):
1  4138U 69091A   17328.28054553 +.00000009 +00000-0 +10095-4 0  9992
2  4138 074.0385 305.4284 0012897 002.0944 358.0266 14.45993116535766
Source of the keplerian elements: AFSPC